Tracking 28126 objects as of 1-Oct-2023
HD Live streaming from Space Station
objects crossing your sky now

COSMOS 1464

Track COSMOS 1464 now!
10-day predictions
COSMOS 1464 is classified as:


NORAD ID: 14084
Int'l Code: 1983-048A
Perigee: 969.4 km
Apogee: 1,011.5 km
Inclination: 82.9 °
Period: 104.8 minutes
Semi major axis: 7361 km
RCS: 3.4425 m2 (large)
Launch date: May 24, 1983
Source: Commonwealth of Independent States (former USSR) (CIS)
Launch site: PLESETSK MISSILE AND SPACE COMPLEX (PKMTR)
Your satellite tracking list
Your tracking list is empty




NASA's NSSDC Master Catalog

Two Line Element Set (TLE):
1 14084U 83048A   23273.77710149  .00000088  00000-0  76983-4 0  9996
2 14084  82.9470 218.2203 0028588 271.3194 152.0629 13.74544958 24084
Source of the keplerian elements: AFSPC